KC5MK Weather Reports


time (UTC)temp
C
wind
direction
speed
KPH
gust
KPH
rain 1hr
cm
rain 24hr
cm
rain mn
cm
humidity
%
barometer
mb
20260906220039 36 129 8.0 24.1 0.00 0.00 0.00 37 1008.5
20260906214539 36 116 14.5 24.1 0.00 0.00 0.00 38 1008.7
20260906213029 36 163 11.3 27.4 0.00 0.00 0.00 38 1008.9
20260906211528 36 126 16.1 25.7 0.00 0.00 0.00 37 1009.2
20260906210023 36 158 9.7 27.4 0.00 0.00 0.00 37 1009.4
20260906204521 36 101 11.3 24.1 0.00 0.00 0.00 38 1009.7
20260906203020 36 104 11.3 19.3 0.00 0.00 0.00 37 1009.8
20260906201518 36 143 14.5 25.7 0.00 0.00 0.00 39 1010.1
20260906200017 35 145 11.3 20.9 0.00 0.00 0.00 39 1010.2
20260906194518 36 109 14.5 24.1 0.00 0.00 0.00 37 1010.2
20260906193015 36 122 14.5 25.7 0.00 0.00 0.00 38 1010.2
20260906191509 36 130 16.1 25.7 0.00 0.00 0.00 38 1010.4
20260906190011 36 154 9.7 37.0 0.00 0.00 0.00 40 1010.3
20260906184505 36 125 14.5 30.6 0.00 0.00 0.00 39 1010.6
20260906183007 35 143 14.5 29.0 0.00 0.00 0.00 40 1010.7
20260906181506 35 144 12.9 22.5 0.00 0.00 0.00 43 1010.8
20260906180105 35 127 12.9 25.7 0.00 0.00 0.00 42 1011.1
20260906174610 35 112 16.1 25.7 0.00 0.00 0.00 42 1011.4
20260906173102 35 121 12.9 27.4 0.00 0.00 0.00 43 1011.7
20260906171555 35 133 19.3 27.4 0.00 0.00 0.00 43 1011.8
20260906170051 35 132 12.9 25.7 0.00 0.00 0.00 44 1012.0
20260906164550 34 161 9.7 17.7 0.00 0.00 0.00 47 1012.1
20260906163055 33 99 3.2 12.9 0.00 0.00 0.00 50 1012.2
20260906161543 33 238 4.8 11.3 0.00 0.00 0.00 52 1012.3
20260906160040 32 147 8.0 14.5 0.00 0.00 0.00 53 1012.4
20260906154538 32 91 4.8 16.1 0.00 0.00 0.00 55 1012.3
20260906153037 32 110 3.2 6.4 0.00 0.00 0.00 56 1012.2
20260906151533 31 111 3.2 6.4 0.00 0.00 0.00 58 1012.2
20260906150032 31 119 1.6 6.4 0.00 0.00 0.00 62 1012.1
20260906144525 30 146 0.0 9.7 0.00 0.00 0.00 64 1012.1
20260906143022 29 177 3.2 11.3 0.00 0.00 0.00 66 1012.1
20260906141520 28 152 3.2 9.7 0.00 0.00 0.00 69 1012.1
20260906140021 28 164 3.2 9.7 0.00 0.00 0.00 70 1012.0
20260906134518 27 164 4.8 8.0 0.00 0.00 0.00 72 1012.0
20260906133016 27 158 3.2 9.7 0.00 0.00 0.00 76 1012.1
20260906131515 26 151 3.2 8.0 0.00 0.00 0.00 78 1012.1
20260906130012 25 160 0.0 0.0 0.00 0.00 0.00 82 1011.8
20260906124511 23 160 0.0 0.0 0.00 0.00 0.00 85 1011.8
20260906123016 23 160 0.0 0.0 0.00 0.00 0.00 87 1011.7
20260906121508 23 160 0.0 0.0 0.00 0.00 0.00 85 1011.4
20260906120010 23 160 0.0 0.0 0.00 0.00 0.00 86 1011.2
20260906114518 23 160 0.0 0.0 0.00 0.00 0.00 85 1011.2
20260906113005 23 160 0.0 0.0 0.00 0.00 0.00 84 1011.0
20260906111503 23 160 0.0 0.0 0.00 0.00 0.00 84 1011.1
20260906110000 23 160 0.0 0.0 0.00 0.00 0.00 83 1010.8
20260906104559 23 160 0.0 0.0 0.00 0.00 0.00 82 1010.7
20260906103059 23 160 0.0 0.0 0.00 0.00 0.00 83 1010.6
20260906101604 23 160 0.0 0.0 0.00 0.00 0.00 82 1010.6
20260906100057 23 160 0.0 0.0 0.00 0.00 0.00 82 1010.3
20260906094555 24 160 0.0 0.0 0.00 0.00 0.00 80 1010.4
20260906093053 24 160 0.0 0.0 0.00 0.00 0.00 81 1010.2
20260906091553 24 160 0.0 0.0 0.00 0.00 0.00 79 1010.3
20260906090050 25 160 0.0 1.6 0.00 0.00 0.00 79 1010.2
20260906084549 25 160 0.0 0.0 0.00 0.00 0.00 79 1010.1
20260906083049 25 159 0.0 0.0 0.00 0.00 0.00 77 1010.2
20260906081547 25 159 0.0 0.0 0.00 0.00 0.00 76 1010.0
20260906080044 25 159 0.0 0.0 0.00 0.00 0.00 76 1009.9
20260906074546 25 159 0.0 0.0 0.00 0.00 0.00 76 1009.8
20260906073045 25 159 0.0 0.0 0.00 0.00 0.00 75 1010.2
20260906071538 26 159 0.0 0.0 0.00 0.00 0.00 73 1010.3
20260906070036 26 159 0.0 0.0 0.00 0.00 0.00 71 1010.2
20260906064537 27 159 0.0 0.0 0.00 0.00 0.00 71 1010.2
20260906063030 27 159 0.0 0.0 0.00 0.00 0.00 69 1010.4
20260906061529 27 159 0.0 0.0 0.00 0.00 0.00 69 1010.5
20260906060031 27 159 0.0 0.0 0.00 0.00 0.00 68 1010.5
20260906054527 27 159 0.0 0.0 0.00 0.00 0.00 68 1010.3
20260906053030 27 159 0.0 0.0 0.00 0.00 0.00 66 1010.6
20260906051521 27 159 0.0 0.0 0.00 0.00 0.00 66 1010.6
20260906050020 28 159 0.0 1.6 0.00 0.00 0.00 63 1010.6
20260906044517 29 159 0.0 1.6 0.00 0.00 0.00 62 1010.4
20260906043017 29 159 0.0 4.8 0.00 0.00 0.00 60 1010.5
20260906041522 30 159 0.0 4.8 0.00 0.00 0.00 58 1010.5
20260906040025 30 159 1.6 6.4 0.00 0.00 0.00 57 1010.3
20260906034513 30 153 3.2 11.3 0.00 0.00 0.00 55 1010.3
20260906033013 30 151 6.4 12.9 0.00 0.00 0.00 54 1010.3
20260906031526 30 134 4.8 11.3 0.00 0.00 0.00 52 1010.1
20260906030012 29 144 0.0 1.6 0.00 0.00 0.00 57 1010.0
20260906024511 30 144 0.0 1.6 0.00 0.00 0.00 53 1009.9
20260906023011 31 144 0.0 0.0 0.00 0.00 0.00 52 1009.6
20260906021511 31 144 0.0 1.6 0.00 0.00 0.00 47 1009.4
20260906020011 31 144 0.0 3.2 0.00 0.00 0.00 46 1009.2
20260906014512 31 144 1.6 3.2 0.00 0.00 0.00 46 1009.1
20260906013009 32 144 0.0 1.6 0.00 0.00 0.00 45 1008.9
20260906011509 32 144 0.0 4.8 0.00 0.00 0.00 44 1008.7
20260906010012 33 144 0.0 4.8 0.00 0.00 0.00 42 1008.6
20260906004507 34 145 3.2 8.0 0.00 0.00 0.00 41 1008.5
20260906003007 35 150 3.2 8.0 0.00 0.00 0.00 39 1008.6
20260906001507 35 158 6.4 12.9 0.00 0.00 0.00 38 1008.5
20260906000007 35 139 6.4 12.9 0.00 0.00 0.00 38 1008.3
20260905234506 36 133 4.8 14.5 0.00 0.00 0.00 37 1008.4
20260905233005 36 121 8.0 17.7 0.00 0.00 0.00 37 1008.2
20260905231507 36 158 9.7 16.1 0.00 0.00 0.00 37 1008.2
20260905230004 36 116 9.7 20.9 0.00 0.00 0.00 36 1008.2
20260905224601 36 138 6.4 12.9 0.00 0.00 0.00 36 1008.2
20260905223058 36 118 11.3 22.5 0.00 0.00 0.00 35 1008.2
20260905221605 37 95 6.4 12.9 0.00 0.00 0.00 35 1008.3